YUZGU 10 (RS4S) (53321 NORAD) Tracking and Keplerian Element Data

This shows tracking and keplerian element data for the satellite.

Feedback or suggestion? Click here.




ElementValue
Catalog53321
NameYUZGU 10 (RS4S)
Epoch Orbit1913
Epoch Day325.14916385
Epoch Year2022
RAAN273.4345
Inclination51.6362
Eccentricity0.0008712
Argument of Perigee106.4686
Mean Anonmoly253.7268
Mean Motion15.66378505
Decay Rate0.00115574
L11 53321U 98067TZ 22325.14916385 .00115574 00000+0 10797-2 0 9993
L22 53321 51.6362 273.4345 0008712 106.4686 253.7268 15.66378505 19139



Live tracking and technical data element details for YUZGU 10 (RS4S) (NORAD 53321). YUZGU 10 (RS4S) can be tracked NOW for your location showing map with azimuth and elevation plus other details from your city location.







IsCatalogInMostPopularTable: catalog: 53321, numindb: 14
Update: records affected: 1



GetName: 53321 YUZGU 10 (RS4S)

Hit Count: updated at: Tue, 29 Nov 2022 00:51:52 GMT